Regional Weather Roundup
Issued by NWS

Home | Current Version | Previous Version | Text Only | Print | Product List | Glossary Off
Versions: 1 2 3 4 5 6 7 8 9 10 11 12 13 14 15 16 17 18 19 20 21 22 23 24 25 26 27 28 29 30 31 32 33 34 35 36 37 38 39 40 41 42 43 44 45 46 47 48 49 50

000
ASUS43 KIND 230759
RWRIN

WEATHER ROUNDUP FOR INDIANA
NATIONAL WEATHER SERVICE INDIANAPOLIS IN
400 AM EDT MON APR 23 2018

NOTE: "FAIR" INDICATES FEW OR NO CLOUDS BELOW 12,000 FEET WITH NO
SIGNIFICANT WEATHER AND/OR OBSTRUCTIONS TO VISIBILITY.

* - STATION DOES NOT REPORT WEATHER SUCH AS PRECIPITATION OR FOG.

+ - STATION NOT QUALITY CONTROLLED BY THE NATIONAL WEATHER SERVICE.
    USE DATA WITH CAUTION...ESPECIALLY DEWPOINT AND RELATIVE
    HUMIDITY OBSERVATIONS.

INZ001>003-010>013-019-020-230900-
NORTHWEST INDIANA

CITY           SKY/WX    TMP DP  RH WIND       PRES   REMARKS
KNOX *+        FAIR      43  25  49 E8        30.18F
MONTICELLO +   FAIR      46  21  37 NE10      30.15S

$$

LMZ046-743>745-230900-
SOUTHERN LAKE MICHIGAN

STATION/POSITION TIME  TEMP    WIND        PRES    WAVE
                       AIR SEA DIR/SP/G            HT
                 (UTC) (F)     (DEG/KT/KT) (MB)    (FT)
BURNS HARBOR     0740   45      70/  5/  7 1023.0F
MICHIGAN CITY    0730   48      70/  9/ 11   N/A

$$

INZ004-005-014>016-021>024-230900-
NORTH CENTRAL INDIANA

CITY           SKY/WX    TMP DP  RH WIND       PRES   REMARKS
GOSHEN         FAIR      43  25  49 E9        30.20F
PERU/GRISSOM   FAIR     N/A N/A N/A NE12        N/A
ROCHESTER +    FAIR      46  27  46 NE6       30.18S
SOUTH BEND     FAIR      44  21  40 E7        30.21F
WARSAW +       FAIR      43  27  52 E8        30.19S

$$

INZ006>009-017-018-025>027-230900-
NORTHEAST INDIANA

CITY           SKY/WX    TMP DP  RH WIND       PRES   REMARKS
FORT WAYNE     MOCLDY    41  28  60 NE9       30.19S

$$

INZ028-029-035-036-043>045-051>053-230900-
WEST CENTRAL INDIANA

CITY           SKY/WX    TMP DP  RH WIND       PRES   REMARKS
GREENCASTLE +  FAIR      48  30  49 NE8       30.09S
LAFAYETTE      FAIR      46  25  43 NE14      30.14S
TERRE HAUTE    CLOUDY    54  34  46 NE12      30.05F

$$

INZ030>032-037>040-046>048-054>057-064-065-230900-
CENTRAL INDIANA

CITY           SKY/WX    TMP DP  RH WIND       PRES   REMARKS
GREENWOOD *+   FAIR      48  31  52 NE8       30.09F
INDIANAPOLIS   MOCLDY    50  29  44 NE15G22   30.09F
-EAGLE CREEK   FAIR      48  28  46 NE7       30.10F
KOKOMO +       FAIR      42  28  57 E9        30.16F
MT COMFORT *+  FAIR      41  36  81 NE8       30.11F
SHELBYVILLE    FAIR      50  32  50 E13       30.07F
ZIONSVILLE +   FAIR      44  28  54 NE8       30.12F

$$

INZ033-034-041-042-049-050-058-059-230900-
EAST CENTRAL INDIANA

CITY           SKY/WX    TMP DP  RH WIND       PRES   REMARKS
MUNCIE         FAIR      44  29  55 E7        30.14F
RICHMOND +     FAIR      45  32  61 NE14      30.12S

$$

INZ060-061-067>069-081>083-085>088-230900-
SOUTHWEST INDIANA

CITY           SKY/WX    TMP DP  RH WIND       PRES   REMARKS
EVANSVILLE     RAIN      51  47  86 NE13      29.97F
HUNTINGBURG +  RAIN      52  43  71 E12       29.99F

$$

INZ062-063-066-070>080-084-089>092-230900-
SOUTH CENTRAL AND SOUTHEAST INDIANA

CITY           SKY/WX    TMP DP  RH WIND       PRES   REMARKS
BLOOMINGTON    CLOUDY    57  31  37 E14       30.04F
SEYMOUR +      FAIR      57  34  41 E8        30.05S

$$





USA.gov is the U.S. government's official web portal to all federal, state and local government web resources and services.